Portada
METAR-TAF:

METAR-TAF

Aeroports :

Machala, Equador

latitud: 03-26-07S, longitud: 079-58-40W, altitud: 52 m

Observació

L'informe es va fer fa 27 minuts, a les 19:00 UTC
Vent 3 kt del Nord/Nord-Oest
Temperatura 25°C
Humitat 74%
Pressió 1007 hPa
Visibilitat 10 km o més
Escasses núvols a una alçada de 2000 ft
Cel cobert a una alçada de 5000 ft

METAR: SERO 281900Z 33003KT 9999 FEW020 OVC050 25/20 Q1007

Hora: 14:27 (19:27 UTC)


TAF: manca

Observacions i pronòstics meteorològics de més de 4000 aeroports (METAR i TAF).

Les estacions disponibles són els punts grocs i vermells al mapa.

Posi el ratolí al punt desitjat per veure el nom de l'estació.

Feu clic per veure les observacions i els pronòstics meteorològics.

Per canviar el mapa: feu clic els botons verds amb una creu de color negre per apropar; al botó verd amb un guió per allunyar la imatge; o en les fletxes verdes per a mapes adjacents.


METAR-TAF: